Tracking 19905 objects as of 18-Oct-2019
HD Live streaming from Space Station
objects crossing your sky now

BREEZE-M DEB

Track BREEZE-M DEB now!
10-day predictions


NORAD ID: 39174
Int'l Code: 2013-026C
Perigee: 353.1 km
Apogee: 14,807.3 km
Inclination: 50.7 °
Period: 273.3 minutes
Semi major axis: 13951 km
RCS: Unknown
Launch date: June 3, 2013
Source: Commonwealth of Independent States (former USSR) (CIS)
Launch site: TYURATAM MISSILE AND SPACE COMPLEX (TTMTR)

Note: This is SATELLITE DEBRIS
aabbcc
Your satellite tracking list
Your tracking list is empty




NASA's NSSDC Master Catalog

Two Line Element Set (TLE):
1 39174U 13026C   19289.42513368 +.00000589 +00000-0 +21395-3 0  9992
2 39174 050.7276 081.8167 5180240 123.6016 296.9215 05.26848423121913
Source of the keplerian elements: AFSPC